This is the latest recevied weather packets stored in our database for station/object KB2AHZ. If no packets are shown the sender has not sent any weather packets the latest 10 day(s).
| Time | Temp. | Humidity | Pressure | Rain* | Wind** | Luminosity | Snow |
|---|---|---|---|---|---|---|---|
| 1777756556 | 13.89° C | 66% | 1012.5 hPa | 0 mm | - | 162 W/m² | - |
| 1777756254 | 13.89° C | 64% | 1012.5 hPa | 0 mm | - | 176 W/m² | - |
| 1777755951 | 13.89° C | 65% | 1012.3 hPa | 0 mm | - | 189 W/m² | - |
| 1777755648 | 13.89° C | 66% | 1012.3 hPa | 0 mm | - | 238 W/m² | - |
| 1777755345 | 13.89° C | 67% | 1012.3 hPa | 0 mm | - | 196 W/m² | - |
| 1777755042 | 13.89° C | 66% | 1012.4 hPa | 0 mm | - | 151 W/m² | - |
| 1777754738 | 13.89° C | 64% | 1012.4 hPa | 0 mm | - | 172 W/m² | - |
| 1777754436 | 13.89° C | 65% | 1012.3 hPa | 0 mm | - | 194 W/m² | - |
| 1777754133 | 13.89° C | 66% | 1012.3 hPa | 0 mm | - | 193 W/m² | - |
| 1777753830 | 13.89° C | 64% | 1012.3 hPa | 0 mm | - | 189 W/m² | - |
| 1777753526 | 13.89° C | 66% | 1012.4 hPa | 0 mm | - | 207 W/m² | - |
| 1777753225 | 13.89° C | 65% | 1012.2 hPa | 0 mm | - | 176 W/m² | - |
| 1777752920 | 13.89° C | 67% | 1012.4 hPa | 0 mm | - | 167 W/m² | - |
| 1777752617 | 13.89° C | 65% | 1012.7 hPa | 0 mm | - | 167 W/m² | - |
| 1777752313 | 13.89° C | 68% | 1012.4 hPa | 0 mm | - | 137 W/m² | - |
| 1777752011 | 13.89° C | 66% | 1012.5 hPa | 0 mm | - | 145 W/m² | - |
| 1777751709 | 13.89° C | 68% | 1012.7 hPa | 0 mm | - | 162 W/m² | - |
| 1777751404 | 13.89° C | 67% | 1012.9 hPa | 0 mm | - | 166 W/m² | - |
| 1777751101 | 13.89° C | 69% | 1012.6 hPa | 0 mm | - | 195 W/m² | - |
| 1777750796 | 13.89° C | 67% | 1012.8 hPa | 0 mm | - | 184 W/m² | - |
| 1777750495 | 13.89° C | 67% | 1012.6 hPa | 0 mm | - | 195 W/m² | - |
| 1777750190 | 13.89° C | 67% | 1012.6 hPa | 0 mm | - | 173 W/m² | - |
| 1777749887 | 13.89° C | 67% | 1012.7 hPa | 0 mm | - | 206 W/m² | - |
| 1777749584 | 13.89° C | 66% | 1012.7 hPa | 0 mm | - | 255 W/m² | - |
| 1777749282 | 13.89° C | 67% | 1012.6 hPa | 0 mm | - | 235 W/m² | - |
* Rain latest hour (hover to see other rain measurements)
** Current wind speed in m/s (hover to see current wind gust speed)